Louisa, VA

8:20 AM EST on February 10, 2016 (GMT -0500)
Louisa County-Freeman

Weather History for KLKU - May, 2013

Change the Weather History Date:

Tuesday, May 21, 2013

  Actual Average (KCHO) Record (KCHO)
Temperature  
Mean Temperature 76 °F 64 °F  
Max Temperature 84 °F 76 °F 96 °F (1941)
Min Temperature 69 °F 53 °F 36 °F (2002)
Degree Days  
Heating Degree Days 0 3  
Month to date heating degree days 100  
Since 1 July heating degree days 4412  
Cooling Degree Days 12 2  
Month to date cooling degree days 33  
Year to date cooling degree days 54  
Growing Degree Days 26 (Base 50)    
Moisture  
Dew Point 68 °F    
Average Humidity 82    
Maximum Humidity 88    
Minimum Humidity 62    
Precipitation  
Precipitation 0.00 in 0.13 in 0.88 in (2001)
Month to date precipitation 2.50  
Year to date precipitation 14.99  
Sea Level Pressure  
Sea Level Pressure 29.97 in    
Wind  
Wind Speed 4 mph (South)    
Max Wind Speed 8 mph    
Max Gust Speed -    
Visibility 8 miles    
Events      
T = Trace of Precipitation, MM = Missing Value Source: NWS Daily Summary

Daily Weather History Graph

Daily Weather History Graph

Search for Another Location

Airport or City:

Trip Planner

Search our weather history database for the weather conditions in past years. The results will help you decide how hot, cold, wet, or windy it might be!

Date:

Astronomy

May. 21, 2013 Rise Set
Actual Time 5:56 AM EDT 8:20 PM EDT
Civil Twilight 5:26 AM EDT 8:50 PM EDT
Nautical Twilight 4:49 AM EDT 9:28 PM EDT
Astronomical Twilight 4:08 AM EDT 10:09 PM EDT
Moon 4:35 PM EDT (5/21) 3:19 AM EDT (5/21)
Length of Visible Light 15h 24m
Length of Day
14h 24m
Waxing Gibbous, 84% of the Moon is Illuminated
May 21
Waxing Gibbous
May 25
Full
May 31
Last Quarter
Jun 8
New
Jun 16
First Quarter

Hourly Weather History & Observations

Time (EDT) Temp. Heat Index Dew Point Humidity Pressure Visibility Wind Dir Wind Speed Gust Speed Precip Events Conditions
12:15 AM 69.8 °F - 66.2 °F 88% 30.01 in 7.0 mi South 4.6 mph - N/A   Clear
12:35 AM 69.8 °F - 66.2 °F 88% 30.01 in 7.0 mi South 3.5 mph - N/A   Scattered Clouds
12:55 AM 69.8 °F - 66.2 °F 88% 30.01 in 7.0 mi South 3.5 mph - N/A   Scattered Clouds
1:15 AM 69.8 °F - 66.2 °F 88% 30.00 in 5.0 mi South 4.6 mph - N/A   Scattered Clouds
1:35 AM 69.8 °F - 66.2 °F 88% 30.00 in 5.0 mi SSE 3.5 mph - N/A   Mostly Cloudy
1:55 AM 69.8 °F - 66.2 °F 88% 29.99 in 7.0 mi South 4.6 mph - N/A   Overcast
2:15 AM 69.8 °F - 66.2 °F 88% 30.00 in 7.0 mi South 4.6 mph - N/A   Overcast
2:35 AM 69.8 °F - 66.2 °F 88% 29.99 in 5.0 mi South 4.6 mph - N/A   Overcast
2:55 AM 69.8 °F - 66.2 °F 88% 29.99 in 5.0 mi SSW 5.8 mph - N/A   Overcast
3:15 AM 69.8 °F - 66.2 °F 88% 29.99 in 7.0 mi Calm Calm - N/A   Overcast
3:35 AM 69.8 °F - 66.2 °F 88% 29.98 in 5.0 mi SSW 5.8 mph - N/A   Overcast
3:55 AM 69.8 °F - 66.2 °F 88% 29.98 in 5.0 mi SSW 4.6 mph - N/A   Overcast
4:15 AM 69.8 °F - 66.2 °F 88% 29.98 in 7.0 mi SSW 4.6 mph - N/A   Overcast
4:35 AM 69.8 °F - 66.2 °F 88% 29.98 in 7.0 mi South 4.6 mph - N/A   Overcast
4:55 AM 69.8 °F - 66.2 °F 88% 29.98 in 7.0 mi SSW 3.5 mph - N/A   Overcast
5:15 AM 69.8 °F - 66.2 °F 88% 29.99 in 7.0 mi SW 3.5 mph - N/A   Overcast
5:35 AM 69.8 °F - 66.2 °F 88% 29.99 in 7.0 mi SSW 3.5 mph - N/A   Overcast
5:55 AM 69.8 °F - 66.2 °F 88% 30.00 in 7.0 mi South 3.5 mph - N/A   Overcast
6:15 AM 69.8 °F - 66.2 °F 88% 30.00 in 7.0 mi South 4.6 mph - N/A   Overcast
6:35 AM 69.8 °F - 66.2 °F 88% 30.00 in 5.0 mi South 4.6 mph - N/A   Overcast
6:55 AM 69.8 °F - 66.2 °F 88% 30.00 in 5.0 mi SSW 3.5 mph - N/A   Overcast
7:15 AM 69.8 °F - 66.2 °F 88% 30.00 in 5.0 mi SSW 3.5 mph - N/A   Overcast
7:35 AM 69.8 °F - 66.2 °F 88% 30.00 in 5.0 mi SSW 4.6 mph - N/A   Overcast
7:55 AM 69.8 °F - 66.2 °F 88% 30.00 in 7.0 mi SSW 4.6 mph - N/A   Overcast
8:15 AM 69.8 °F - 66.2 °F 88% 30.01 in 7.0 mi SW 6.9 mph - N/A   Overcast
8:35 AM 69.8 °F - 66.2 °F 88% 30.01 in 7.0 mi SW 6.9 mph - N/A   Overcast
8:55 AM 71.6 °F - 66.2 °F 83% 30.01 in 7.0 mi WSW 4.6 mph - N/A   Overcast
9:15 AM 71.6 °F - 66.2 °F 83% 30.02 in 7.0 mi SW 4.6 mph - N/A   Overcast
9:35 AM 71.6 °F - 66.2 °F 83% 30.01 in 10.0 mi SW 4.6 mph - N/A   Overcast
9:55 AM 71.6 °F - 66.2 °F 83% 30.01 in 7.0 mi Calm Calm - N/A   Overcast
10:15 AM 71.6 °F - 66.2 °F 83% 30.01 in 7.0 mi SSW 5.8 mph - N/A   Overcast
10:35 AM 71.6 °F - 66.2 °F 83% 30.01 in 7.0 mi SSW 4.6 mph - N/A   Overcast
10:55 AM 73.4 °F - 68.0 °F 83% 30.01 in 7.0 mi South 4.6 mph - N/A   Overcast
11:15 AM 73.4 °F - 68.0 °F 83% 30.01 in 10.0 mi SW 6.9 mph - N/A   Overcast
11:35 AM 73.4 °F - 68.0 °F 83% 30.01 in 7.0 mi Calm Calm - N/A   Overcast
11:55 AM 75.2 °F - 69.8 °F 83% 30.01 in 7.0 mi SSW 4.6 mph - N/A   Overcast
12:15 PM 75.2 °F - 69.8 °F 83% 30.00 in 10.0 mi South 3.5 mph - N/A   Overcast
12:35 PM 75.2 °F - 69.8 °F 83% 30.00 in 10.0 mi SE 6.9 mph - N/A   Overcast
12:55 PM 77.0 °F - 69.8 °F 78% 29.99 in 10.0 mi SSE 6.9 mph - N/A   Overcast
1:15 PM 78.8 °F - 69.8 °F 74% 29.99 in 10.0 mi SSE 3.5 mph - N/A   Mostly Cloudy
1:35 PM 78.8 °F - 69.8 °F 74% 29.99 in 10.0 mi West 4.6 mph - N/A   Mostly Cloudy
1:55 PM 80.6 °F 83.9 °F 69.8 °F 70% 29.98 in 10.0 mi SSW 5.8 mph - N/A   Mostly Cloudy
2:15 PM 80.6 °F 83.9 °F 69.8 °F 70% 29.97 in 10.0 mi SSE 4.6 mph - N/A   Mostly Cloudy
2:35 PM 82.4 °F 87.2 °F 71.6 °F 70% 29.96 in 10.0 mi SE 4.6 mph - N/A   Scattered Clouds
2:55 PM 82.4 °F 86.3 °F 69.8 °F 66% 29.96 in 10.0 mi SE 4.6 mph - N/A   Scattered Clouds
3:15 PM 82.4 °F 87.2 °F 71.6 °F 70% 29.95 in 10.0 mi SE 6.9 mph - N/A   Clear
3:55 PM 82.4 °F 87.2 °F 71.6 °F 70% 29.95 in 10.0 mi South 8.1 mph - N/A   Scattered Clouds
4:15 PM 82.4 °F 87.2 °F 71.6 °F 70% 29.93 in 10.0 mi SSE 6.9 mph - N/A   Scattered Clouds
4:35 PM 84.2 °F 88.4 °F 69.8 °F 62% 29.93 in 10.0 mi SSE 6.9 mph - N/A   Clear
4:55 PM 84.2 °F 89.6 °F 71.6 °F 66% 29.93 in 10.0 mi South 5.8 mph - N/A   Clear
5:15 PM 84.2 °F 88.4 °F 69.8 °F 62% 29.92 in 10.0 mi SSE 4.6 mph - N/A   Clear
5:35 PM 82.4 °F 87.2 °F 71.6 °F 70% 29.92 in 10.0 mi SSE 4.6 mph - N/A   Clear
5:55 PM 82.4 °F 87.2 °F 71.6 °F 70% 29.93 in 10.0 mi SSE 5.8 mph - N/A   Clear
6:15 PM 82.4 °F 87.2 °F 71.6 °F 70% 29.92 in 10.0 mi SSE 3.5 mph - N/A   Clear
6:35 PM 82.4 °F 87.2 °F 71.6 °F 70% 29.91 in 10.0 mi South 5.8 mph - N/A   Clear
6:55 PM 80.6 °F 83.9 °F 69.8 °F 70% 29.91 in 10.0 mi South 3.5 mph - N/A   Clear
7:15 PM 80.6 °F 84.6 °F 71.6 °F 74% 29.92 in 10.0 mi Calm Calm - N/A   Clear
7:35 PM 78.8 °F - 71.6 °F 78% 29.91 in 10.0 mi SSE 3.5 mph - N/A   Clear
7:55 PM 78.8 °F - 71.6 °F 78% 29.91 in 10.0 mi SE 3.5 mph - N/A   Clear
8:15 PM 77.0 °F - 71.6 °F 83% 29.91 in 10.0 mi Calm Calm - N/A   Clear
8:35 PM 77.0 °F - 71.6 °F 83% 29.91 in 10.0 mi SSE 3.5 mph - N/A   Clear
8:55 PM 75.2 °F - 69.8 °F 83% 29.91 in 10.0 mi SSE 4.6 mph - N/A   Clear
9:15 PM 75.2 °F - 69.8 °F 83% 29.91 in 10.0 mi SSE 3.5 mph - N/A   Clear
9:35 PM 73.4 °F - 69.8 °F 88% 29.90 in 7.0 mi SE 5.8 mph - N/A   Clear
9:55 PM 75.2 °F - 69.8 °F 83% 29.91 in 7.0 mi Calm Calm - N/A   Clear
10:15 PM 73.4 °F - 69.8 °F 88% 29.92 in 5.0 mi Calm Calm - N/A   Clear
10:35 PM 73.4 °F - 69.8 °F 88% 29.92 in 7.0 mi Calm Calm - N/A   Clear
10:55 PM 73.4 °F - 69.8 °F 88% 29.92 in 7.0 mi Calm Calm - N/A   Clear
11:15 PM 73.4 °F - 69.8 °F 88% 29.92 in 7.0 mi Calm Calm - N/A   Clear
11:35 PM 73.4 °F - 69.8 °F 88% 29.92 in 7.0 mi Calm Calm - N/A   Clear
11:55 PM 73.4 °F - 69.8 °F 88% 29.93 in 7.0 mi Calm Calm - N/A   Clear